Time,TemperatureF,DewpointF,PressureIn,WindDirection,WindDirectionDegrees,WindSpeedMPH,WindSpeedGustMPH,Humidity,HourlyPrecipIn,Conditions,Clouds,dailyrainin,SoftwareType,DateUTC
2013-02-04 12:32:00,33.0,22.0,-100.00,South,170,6.0,-999.0,64,0.00,,,-99.99,,2013-02-04 17:32:00,
2013-02-04 12:42:00,34.0,23.0,-100.00,South,170,4.0,9.0,64,0.00,,,-99.99,,2013-02-04 17:42:00,
2013-02-04 12:52:00,34.0,23.0,-100.00,SSE,155,3.0,10.0,65,0.00,,,-99.99,,2013-02-04 17:52:00,
2013-02-04 13:03:00,34.0,23.0,-100.00,South,175,3.0,10.0,63,0.00,,,-99.99,,2013-02-04 18:03:00,
2013-02-04 13:11:00,34.0,23.0,-100.00,South,175,3.0,10.0,63,0.00,,,-99.99,,2013-02-04 18:11:00,
2013-02-04 13:22:00,34.0,23.0,-100.00,SSE,150,3.0,-999.0,61,0.00,,,-99.99,,2013-02-04 18:22:00,
2013-02-04 13:32:00,35.0,23.0,-100.00,SSE,155,2.0,7.0,61,0.00,,,-99.99,,2013-02-04 18:32:00,
2013-02-04 13:42:00,36.0,23.0,-100.00,SE,130,4.0,8.0,59,0.00,,,-99.99,,2013-02-04 18:42:00,
2013-02-04 13:52:00,37.0,23.0,-100.00,SE,145,2.0,7.0,56,0.00,,,-99.99,,2013-02-04 18:52:00,
2013-02-04 14:02:00,38.0,22.0,-100.00,SE,145,4.0,7.0,53,0.00,,,-99.99,,2013-02-04 19:02:00,
2013-02-04 14:11:00,38.0,23.0,-100.00,SSE,155,4.0,9.0,53,0.00,,,-99.99,,2013-02-04 19:11:00,
2013-02-04 14:22:00,39.0,23.0,-100.00,SE,135,3.0,7.0,52,0.00,,,-99.99,,2013-02-04 19:22:00,
2013-02-04 14:32:00,39.0,23.0,-100.00,SSE,155,4.0,6.0,51,0.00,,,-99.99,,2013-02-04 19:32:00,
2013-02-04 14:42:00,40.0,24.0,-100.00,South,190,2.0,6.0,51,0.00,,,-99.99,,2013-02-04 19:42:00,
2013-02-04 14:52:00,40.0,24.0,-100.00,SE,130,2.0,6.0,50,0.00,,,-99.99,,2013-02-04 19:52:00,
2013-02-04 15:02:00,40.0,23.0,-100.00,South,190,4.0,7.0,50,0.00,,,-99.99,,2013-02-04 20:02:00,
2013-02-04 15:12:00,40.0,23.0,-100.00,SSW,210,1.0,6.0,50,0.00,,,-99.99,,2013-02-04 20:12:00,
2013-02-04 15:22:00,41.0,23.0,-100.00,SE,145,2.0,6.0,49,0.00,,,-99.99,,2013-02-04 20:22:00,
2013-02-04 15:32:00,40.0,24.0,-100.00,SE,140,3.0,6.0,51,0.00,,,-99.99,,2013-02-04 20:32:00,
2013-02-04 15:42:00,40.0,24.0,-100.00,South,175,1.0,8.0,51,0.00,,,-99.99,,2013-02-04 20:42:00,
2013-02-04 15:52:00,41.0,24.0,-100.00,SE,145,2.0,5.0,50,0.00,,,-99.99,,2013-02-04 20:52:00,
2013-02-04 16:03:00,41.0,24.0,-100.00,ESE,110,1.0,5.0,50,0.00,,,-99.99,,2013-02-04 21:03:00,
2013-02-04 16:11:00,41.0,24.0,-100.00,South,170,1.0,3.0,49,0.00,,,-99.99,,2013-02-04 21:11:00,
2013-02-04 16:22:00,42.0,25.0,-100.00,North,5,0.0,2.0,51,0.00,,,-99.99,,2013-02-04 21:22:00,
2013-02-04 16:32:00,41.0,24.0,-100.00,East,85,1.0,3.0,50,0.00,,,-99.99,,2013-02-04 21:32:00,
2013-02-04 16:42:00,41.0,24.0,-100.00,East,95,1.0,3.0,50,0.00,,,-99.99,,2013-02-04 21:42:00,
2013-02-04 16:52:00,40.0,25.0,-100.00,East,80,1.0,5.0,54,0.00,,,-99.99,,2013-02-04 21:52:00,
2013-02-04 17:03:00,41.0,24.0,-100.00,SSE,150,1.0,4.0,51,0.00,,,-99.99,,2013-02-04 22:03:00,
2013-02-04 17:12:00,41.0,25.0,-100.00,NE,35,1.0,4.0,52,0.00,,,-99.99,,2013-02-04 22:12:00,
2013-02-04 17:21:00,40.0,24.0,-100.00,SE,135,1.0,6.0,52,0.00,,,-99.99,,2013-02-04 22:21:00,
2013-02-04 17:32:00,40.0,26.0,-100.00,SE,135,1.0,7.0,56,0.00,,,-99.99,,2013-02-04 22:32:00,
2013-02-04 17:42:00,40.0,25.0,-100.00,SW,225,0.0,2.0,56,0.00,,,-99.99,,2013-02-04 22:42:00,
2013-02-04 17:51:00,39.0,26.0,-100.00,NNE,15,0.0,6.0,58,0.00,,,-99.99,,2013-02-04 22:51:00,
2013-02-04 18:02:00,39.0,26.0,-100.00,ENE,70,0.0,1.0,58,0.00,,,-99.99,,2013-02-04 23:02:00,
2013-02-04 18:11:00,39.0,26.0,-100.00,NE,45,1.0,4.0,58,0.00,,,-99.99,,2013-02-04 23:11:00,
2013-02-04 18:21:00,40.0,27.0,-100.00,WNW,295,1.0,4.0,59,0.00,,,-99.99,,2013-02-04 23:21:00,
2013-02-04 18:32:00,39.0,28.0,-100.00,ENE,75,0.0,3.0,65,0.55,,,-99.99,,2013-02-04 23:32:00,
2013-02-04 18:42:00,39.0,29.0,-100.00,West,280,0.0,4.0,69,0.00,,,-99.99,,2013-02-04 23:42:00,
2013-02-04 18:52:00,37.0,30.0,-100.00,SSW,210,4.0,6.0,73,0.55,,,-99.99,,2013-02-04 23:52:00,
2013-02-04 19:02:00,39.0,31.0,-100.00,WSW,255,4.0,11.0,74,0.00,,,-99.99,,2013-02-05 00:02:00,
2013-02-04 19:11:00,39.0,32.0,-100.00,WNW,295,2.0,7.0,74,0.00,,,-99.99,,2013-02-05 00:11:00,
2013-02-04 19:22:00,39.0,32.0,-100.00,WNW,290,2.0,6.0,77,0.55,,,-99.99,,2013-02-05 00:22:00,
2013-02-04 19:32:00,39.0,33.0,-100.00,WNW,290,2.0,6.0,78,0.55,,,-99.99,,2013-02-05 00:32:00,
2013-02-04 19:42:00,39.0,33.0,-100.00,WNW,295,1.0,3.0,79,0.55,,,-99.99,,2013-02-05 00:42:00,
2013-02-04 19:51:00,38.0,33.0,-100.00,NNW,330,2.0,4.0,81,0.55,,,-99.99,,2013-02-05 00:51:00,
2013-02-04 20:02:00,38.0,33.0,-100.00,NW,310,2.0,4.0,82,0.55,,,-99.99,,2013-02-05 01:02:00,
2013-02-04 20:11:00,38.0,33.0,-100.00,ENE,75,1.0,4.0,84,0.55,,,-99.99,,2013-02-05 01:11:00,
2013-02-04 20:22:00,38.0,34.0,-100.00,NNW,335,0.0,3.0,85,0.00,,,-99.99,,2013-02-05 01:22:00,
2013-02-04 20:32:00,37.0,33.0,-100.00,SSE,160,0.0,1.0,85,0.55,,,-99.99,,2013-02-05 01:32:00,
2013-02-04 20:42:00,37.0,34.0,-100.00,East,85,0.0,4.0,87,0.55,,,-99.99,,2013-02-05 01:42:00,
2013-02-04 20:52:00,37.0,33.0,-100.00,East,100,0.0,0.0,87,0.00,,,-99.99,,2013-02-05 01:52:00,
2013-02-04 21:01:00,36.0,33.0,-100.00,East,100,0.0,0.0,88,0.55,,,-99.99,,2013-02-05 02:01:00,
2013-02-04 21:11:00,37.0,34.0,-100.00,East,100,0.0,2.0,88,0.55,,,-99.99,,2013-02-05 02:11:00,
2013-02-04 21:22:00,37.0,34.0,-100.00,East,85,0.0,1.0,89,0.00,,,-99.99,,2013-02-05 02:22:00,
2013-02-04 21:32:00,37.0,34.0,-100.00,WSW,255,0.0,1.0,89,0.00,,,-99.99,,2013-02-05 02:32:00,
2013-02-04 21:42:00,37.0,34.0,-100.00,SSE,160,0.0,2.0,89,0.00,,,-99.99,,2013-02-05 02:42:00,
2013-02-04 21:52:00,37.0,34.0,-100.00,SSE,150,0.0,1.0,89,0.00,,,-99.99,,2013-02-05 02:52:00,
2013-02-04 22:02:00,37.0,35.0,-100.00,NW,305,0.0,0.0,89,0.00,,,-99.99,,2013-02-05 03:02:00,
2013-02-04 22:11:00,37.0,35.0,-100.00,North,0,0.0,0.0,89,0.00,,,-99.99,,2013-02-05 03:11:00,
2013-02-04 22:21:00,37.0,35.0,-100.00,SSE,150,0.0,2.0,89,0.00,,,-99.99,,2013-02-05 03:21:00,
2013-02-04 22:32:00,37.0,35.0,-100.00,South,180,1.0,2.0,90,0.00,,,-99.99,,2013-02-05 03:32:00,
2013-02-04 22:42:00,38.0,35.0,-100.00,East,85,1.0,3.0,90,0.00,,,-99.99,,2013-02-05 03:42:00,
2013-02-04 22:51:00,37.0,35.0,-100.00,NE,35,0.0,2.0,89,0.00,,,-99.99,,2013-02-05 03:51:00,
2013-02-04 23:01:00,37.0,35.0,-100.00,East,100,0.0,2.0,89,0.00,,,-99.99,,2013-02-05 04:01:00,
2013-02-04 23:11:00,38.0,35.0,-100.00,South,180,0.0,2.0,89,0.00,,,-99.99,,2013-02-05 04:11:00,
2013-02-04 23:21:00,38.0,35.0,-100.00,SSW,200,0.0,1.0,89,0.00,,,-99.99,,2013-02-05 04:21:00,
2013-02-04 23:32:00,38.0,36.0,-100.00,WNW,300,0.0,0.0,89,0.00,,,-99.99,,2013-02-05 04:32:00,
2013-02-04 23:42:00,38.0,36.0,-100.00,West,260,0.0,1.0,89,0.00,,,-99.99,,2013-02-05 04:42:00,
2013-02-04 23:52:00,38.0,36.0,-100.00,SSE,155,0.0,1.0,89,0.00,,,-99.99,,2013-02-05 04:52:00,